Satellite: XATCOBEO
Catalog number: 38082
Epoch time:      12145.86846059
Element set:     262
Inclination:      069.4917 deg
RA of node:       008.7654 deg
Eccentricity:    0.0743934
Arg of perigee:   277.0998 deg
Mean anomaly:     074.6142 deg
Mean motion:   14.14807567 rev/day
Decay rate:     3.1266e-04 rev/day^2
Epoch rev:            1429
Checksum:              336

/EX
SB KEPS @ AMSAT  $ORB12145.W
Orbital Elements  12145.WEATHER

HR AMSAT ORBITAL ELEMENTS FOR WEATHER SATELLITES
FROM WA5QGD FORT WORTH,TX May 24, 2012
Send SUBSCRIBE KEPS/UNSUBSCRIBE KEPS to majordomo@amsat.org only
BID: ORB12145.W
TO ALL RADIO AMATEURS BT

Satellite: NOAA-10
Catalog number: 16969
Epoch time:      12144.97928268
Element set:    0941
Inclination:      098.5846 deg
RA of node:       174.4610 deg
Eccentricity:    0.0011659
Arg of perigee:   309.3090 deg
Mean anomaly:     050.7056 deg
Mean motion:   14.27551967 rev/day
Decay rate:       1.30e-06 rev/day^2
Epoch rev:           33641
Checksum:              319

Satellite: NOAA-11
Catalog number: 19531
Epoch time:      12144.74890605
Element set:    0931
Inclination:      098.7326 deg
RA of node:       230.4201 deg
Eccentricity:    0.0010581
Arg of perigee:   297.2215 deg
Mean anomaly:     062.7876 deg
Mean motion:   14.14966504 rev/day
Decay rate:      -1.95e-06 rev/day^2
Epoch rev:           22105
Checksum:              287

Satellite: NOAA-12
Catalog number: 21263
Epoch time:      12144.97198193
Element set:    0438
Inclination:      098.7306 deg
RA of node:       166.7500 deg
Eccentricity:    0.0012883
Arg of perigee:   272.8886 deg
Mean anomaly:     087.0820 deg
Mean motion:   14.25495738 rev/day
Decay rate:        7.9e-07 rev/day^2
Epoch rev:           09310
Checksum:              325

Satellite: MET-3/5
Catalog number: 21655
Epoch time:      12144.76328311
Element set:     416
Inclination:      082.5548 deg
RA of node:       169.4420 deg
Eccentricity:    0.0013745
Arg of perigee:   029.3596 deg
Mean anomaly:     330.8296 deg
Mean motion:   13.17041206 rev/day
Decay rate:      -2.60e-06 rev/day^2
Epoch rev:           99867
Checksum:              307

Satellite: MET-2/21
Catalog number: 22782
Epoch time:      12145.29347306
Element set:     425
Inclination:      082.5505 deg
RA of node:       051.4728 deg
Eccentricity:    0.0021457
Arg of perigee:   216.6789 deg
Mean anomaly:     143.2906 deg
Mean motion:   13.83684705 rev/day
Decay rate:        7.9e-07 rev/day^2
Epoch rev:           94586
Checksum:              323

Satellite: OKEAN-4
Catalog number: 23317
Epoch time:      12144.95680305
Element set:    0934
Inclination:      082.5415 deg
RA of node:       053.8578 deg
Eccentricity:    0.0023478
Arg of perigee:   072.5211 deg
Mean anomaly:     287.8565 deg
Mean motion:   14.83766225 rev/day
Decay rate:      1.041e-05 rev/day^2
Epoch rev:           95121
Checksum:              305

Satellite: NOAA-14
Catalog number: 23455
Epoch time:      12144.91587718
Element set:    0914
Inclination:      098.8258 deg
RA of node:       228.7181 deg
Eccentricity:    0.0010081
Arg of perigee:   033.3117 deg
Mean anomaly:     326.8687 deg
Mean motion:   14.13898810 rev/day
Decay rate:        8.0e-07 rev/day^2
Epoch rev:           89736
Checksum:              328

Satellite: NOAA-15
Catalog number: 25338
Epoch time:      12144.69339936
Element set:    0272
Inclination:      098.6871 deg
RA of node:       131.8332 deg
Eccentricity:    0.0010773
Arg of perigee:   174.2805 deg
Mean anomaly:     185.8474 deg
Mean motion:   14.25071849 rev/day
Decay rate:       3.00e-06 rev/day^2
Epoch rev:           72936
Checksum:              321

Satellite: RESURS
Catalog number: 25394
Epoch time:      12144.95442578
Element set:    0096
Inclination:      098.3204 deg
RA of node:       134.4707 deg
Eccentricity:    0.0001344
Arg of perigee:   356.1040 deg
Mean anomaly:     004.0125 deg
Mean motion:   14.24287633 rev/day
Decay rate:        3.1e-07 rev/day^2
Epoch rev:           72095
Checksum:              266

Satellite: FENGYUN1
Catalog number: 25730
Epoch time:      12144.93833419
Element set:    0625
Inclination:      098.8447 deg
RA of node:       104.3425 deg
Eccentricity:    0.0020564
Arg of perigee:   072.1362 deg
Mean anomaly:     288.2048 deg
Mean motion:   14.09530104 rev/day
Decay rate:      1.912e-05 rev/day^2
Epoch rev:           67119
Checksum:              284

Satellite: OKEAN-0
Catalog number: 25860
Epoch time:      12145.77616167
Element set:     635
Inclination:      097.9334 deg
RA of node:       108.9016 deg
Eccentricity:    0.0001100
Arg of perigee:   042.7613 deg
Mean anomaly:     317.3680 deg
Mean motion:   14.74195652 rev/day
Decay rate:       5.27e-06 rev/day^2
Epoch rev:           69112
Checksum:              289

Satellite: NOAA-16
Catalog number: 26536
Epoch time:      12144.67408034
Element set:    0756
Inclination:      099.0952 deg
RA of node:       186.4148 deg
Eccentricity:    0.0011046
Arg of perigee:   148.9579 deg
Mean anomaly:     211.2276 deg
Mean motion:   14.12740528 rev/day
Decay rate:       3.98e-06 rev/day^2
Epoch rev:           60157
Checksum:              316

